OPTICUBE 04

Last updated on Sun Jun 21 2026 00:03:50 GMT+0000 (Coordinated Universal Time)

1 41851U 16067D 26171.32696426 .00001872 00000+0 12036-3 0 9996 2 41851 98.0696 23.7745 0016961 105.8379 254.4720 15.09671004525642
UTC large
Height (km)
Speed (km/s)
/
Latitude / Longitude
Inclination (degrees)
Orbital Period (minutes)
Azimuth
Elevation
Range (km)
Doppler Factor

Next 0 passes for location: London (51.5072 / 0.1276)

No passes found over London.
OPTICUBE 04